Regional Weather Roundup
Issued by NWS Albany, NY

Home | Current Version | Previous Version | Graphics & Text | Print | Product List | Glossary Off
Versions: 1 2 3 4 5 6 7 8 9 10 11 12 13 14 15 16 17 18 19 20 21 22 23 24 25 26 27 28 29 30 31 32 33 34 35 36 37 38 39 40 41 42 43 44 45 46 47 48 49 50

594
ASUS41 KALY 161010
RWRALY

NEW YORK STATE HOURLY WEATHER ROUNDUP
NATIONAL WEATHER SERVICE ALBANY NY
600 AM EDT WED AUG 16 2017

NOTE: "FAIR" INDICATES FEW OR NO CLOUDS BELOW 12,000 FEET WITH NO
SIGNIFICANT WEATHER AND/OR NO OBSTRUCTIONS TO VISIBILITY.

NYZ032-033-038>043-046>054-057>066-NYZ062>081-082-084-161100-
EAST


CITY           SKY/WX    TMP DP  RH WIND       PRES   REMARKS
ALBANY         MOCLDY    63  60  90 CALM      29.97R
GLENS FALLS    PTCLDY    58  58 100 CALM      29.96R FOG
POUGHKEEPSIE   PTCLDY    64  63  96 CALM      29.95R
NEWBURGH       CLEAR     64  64 100 CALM      29.97R FOG
MONTGOMERY     LGT RAIN  62  61  96 CALM      29.96R
WHITE PLAINS   MOCLDY    69  67  93 NW6       29.94R
ISLIP          FOG       70  70 100 VRB3      29.93R VSB 1/2
NEW YORK CITY  PTCLDY    71  69  93 NW8       29.93R
CENTRAL PARK   MOCLDY    70  68  93 CALM      29.97R FOG
$$

NYZ005>009-017-018-044>046-055-056-161100-
CENTRAL


CITY           SKY/WX    TMP DP  RH WIND       PRES   REMARKS
FULTON         PTCLDY    64  63  96 NE7       29.99R FOG
SYRACUSE       MOCLDY    64  63  96 CALM      29.97R
ROME           CLOUDY    63  62  97 NE5       30.00R
ELMIRA         FOG       63  63 100 W5        30.01S VSB 1/4
BINGHAMTON     PTCLDY    63  61  93 NW6       30.02S
MONTICELLO     CLEAR     59  58  96 NW7       30.02R
$$

NYZ026>034-041>043-087-161100-
NORTH


CITY           SKY/WX    TMP DP  RH WIND       PRES   REMARKS
WATERTOWN      CLOUDY    62  61  96 NE7       30.02R
FORT DRUM      NOT AVBL
OGDENSBURG     MOCLDY    60  57  91 N6        30.02R
MASSENA        PTCLDY    60  55  83 NW6       30.03R
SARANAC LAKE   CLOUDY    59  59 100 CALM      30.00R
PLATTSBURGH    CLOUDY    64  59  83 NW6       29.96R
$$

NYZ001>004-010>016-019>021-085-161100-
WEST


CITY           SKY/WX    TMP DP  RH WIND       PRES   REMARKS
NIAGARA FALLS  PTCLDY    65  32  29 N3        30.02R
BUFFALO        MOCLDY    64  61  90 CALM      30.03R
DUNKIRK        PTCLDY    59  59 100 S3        30.05R
JAMESTOWN      CLOUDY    59  59 100 CALM      30.08R
WELLSVILLE     CLOUDY    64  60  87 CALM      30.08R FOG
ROCHESTER      MOCLDY    62  60  93 CALM      30.01R
PENN YAN       PTCLDY    62  58  86 CALM      30.02R
$$

             KEY
       WCI = WIND CHILL INDEX
       VSB = VISIBILITY
       HX  = HEAT INDEX
$$




USA.gov is the U.S. government's official web portal to all federal, state and local government web resources and services.